Location: Nians�bougou
(13.2321°N, 4.9818°W)
Time: 14:25:05
(UTC+00:00)

Cosmos 1954 Rocket - Pass Details

Date: 18 February 2020
Orbit: 753 x 781 km, 74.0° (Epoch: 29 March)

Event Time Altitude Azimuth Distance (km) Brightness Sun altitude
Rises 05:37:13 0° 199° (SSW) 3,235 7.1 -16.3°
Reaches altitude 10° 05:39:36 10° 202° (SSW) 2,313 6.4 -15.7°
Maximum altitude 05:44:48 65° 283° (WNW) 849 4.0 -14.4°
Drops below altitude 10° 05:50:03 10° 5° (N) 2,326 6.5 -13.2°
Sets 05:52:28 0° 8° (N) 3,255 7.3 -12.6°
